FW9226 Weather Reports


Display with metric or nautical units.
time (UTC)temp
F
wind
direction
speed
MPH
gust
MPH
rain 1hr
in
rain 24hr
in
rain mn
in
humidity
%
barometer
mb
20260502170505 70 145 2.0 9.0 0.00 0.00 0.00 47 1015.8
20260502164006 69 226 2.0 5.0 0.00 0.00 0.00 48 1015.6
20260502163004 68 195 2.0 6.0 0.00 0.00 0.00 50 1015.6
20260502162506 68 219 1.0 4.0 0.00 0.00 0.00 49 1015.7
20260502162007 68 195 1.0 3.0 0.00 0.00 0.00 50 1015.7
20260502161505 68 203 1.0 4.0 0.00 0.00 0.00 52 1015.7
20260502152006 63 72 0.0 1.0 0.00 0.00 0.00 59 1015.6
20260502151503 62 47 0.0 1.0 0.00 0.00 0.00 60 1015.6
20260502150504 62 47 0.0 1.0 0.00 0.00 0.00 61 1015.5
20260502130504 54 286 0.0 1.0 0.00 0.00 0.00 65 1014.8
20260502122505 54 285 0.0 1.0 0.00 0.00 0.00 69 1014.8
20260502122005 54 285 0.0 1.0 0.00 0.00 0.00 69 1014.8
20260502121506 54 286 0.0 1.0 0.00 0.00 0.00 70 1014.8
20260502121005 54 286 0.0 1.0 0.00 0.00 0.00 69 1014.9
20260502120504 54 286 0.0 1.0 0.00 0.00 0.00 69 1014.9
20260502115505 54 285 0.0 1.0 0.00 0.00 0.00 69 1015.0
20260502115005 54 259 0.0 1.0 0.00 0.00 0.00 69 1015.0
20260502114006 54 269 0.0 1.0 0.00 0.00 0.00 68 1015.0
20260502113006 54 269 0.0 1.0 0.00 0.00 0.00 69 1015.2
20260502112506 54 269 0.0 1.0 0.00 0.00 0.00 69 1015.1
20260502112000 54 267 0.0 1.0 0.00 0.00 0.00 69 1015.1
20260502111004 54 267 0.0 1.0 0.00 0.00 0.00 68 1015.2
20260502110008 54 255 0.0 1.0 0.00 0.00 0.00 68 1015.2
20260502104505 54 250 0.0 1.0 0.00 0.00 0.00 69 1015.2
20260502104005 54 250 0.0 1.0 0.00 0.00 0.00 69 1015.2
20260502103500 54 250 0.0 1.0 0.00 0.00 0.00 68 1015.1
20260502103005 54 250 0.0 1.0 0.00 0.00 0.00 68 1015.2
20260502101508 54 250 0.0 1.0 0.00 0.00 0.00 69 1015.2
20260502091505 54 250 0.0 0.0 0.00 0.00 0.00 70 1015.6
20260502091007 55 250 0.0 1.0 0.00 0.00 0.00 70 1015.6
20260502090505 55 250 0.0 1.0 0.00 0.00 0.00 71 1015.7
20260502071505 53 250 0.0 1.0 0.00 0.00 0.00 83 1016.3
20260502071005 53 250 0.0 0.0 0.00 0.00 0.00 84 1016.2
20260502070504 53 250 0.0 0.0 0.00 0.00 0.00 83 1016.2
20260502070006 53 250 0.0 0.0 0.00 0.00 0.00 84 1016.2
20260502065504 53 250 0.0 0.0 0.00 0.00 0.00 84 1016.2
20260502064459 54 250 0.0 1.0 0.00 0.00 0.00 86 1016.2
20260502064005 54 250 0.0 1.0 0.00 0.00 0.00 85 1016.1
20260502063505 55 250 0.0 1.0 0.00 0.00 0.00 84 1016.2
20260502063005 55 250 0.0 1.0 0.00 0.00 0.00 81 1016.2
20260502062505 55 250 0.0 1.0 0.00 0.00 0.00 84 1016.2
20260502062002 54 250 0.0 1.0 0.00 0.00 0.00 87 1016.2
20260502061504 54 250 0.0 0.0 0.00 0.00 0.00 88 1016.3
20260502060504 54 250 0.0 0.0 0.00 0.00 0.00 88 1016.4
20260502055505 54 250 0.0 0.0 0.00 0.00 0.00 88 1016.6
20260502055005 54 250 0.0 0.0 0.00 0.00 0.00 88 1016.6
20260502054506 54 250 0.0 0.0 0.00 0.00 0.00 87 1016.6
20260502054007 54 250 0.0 0.0 0.00 0.00 0.00 88 1016.7
20260502053006 54 250 0.0 0.0 0.00 0.00 0.00 88 1016.6
20260502052504 54 250 0.0 1.0 0.00 0.00 0.00 88 1016.7
20260502052005 54 250 0.0 1.0 0.00 0.00 0.00 87 1016.6
20260502051506 54 250 0.0 0.0 0.00 0.00 0.00 87 1016.7
20260502051008 54 250 0.0 0.0 0.00 0.00 0.00 86 1016.7
20260502050505 55 250 0.0 0.0 0.00 0.00 0.00 86 1016.7
20260502050010 54 250 0.0 0.0 0.00 0.00 0.00 86 1016.6
20260502045505 55 250 0.0 0.0 0.00 0.00 0.00 86 1016.7
20260502045006 55 250 0.0 0.0 0.00 0.00 0.00 85 1016.5
20260502044506 55 250 0.0 0.0 0.00 0.00 0.00 85 1016.6
20260502044006 55 250 0.0 0.0 0.00 0.00 0.00 85 1016.5
20260502043505 55 250 0.0 0.0 0.00 0.00 0.00 85 1016.6
20260502043006 56 250 0.0 0.0 0.00 0.00 0.00 84 1016.5
20260502042504 56 250 0.0 0.0 0.00 0.00 0.00 84 1016.5
20260502042005 56 250 0.0 0.0 0.00 0.00 0.00 84 1016.5
20260502041505 56 250 0.0 0.0 0.00 0.00 0.00 84 1016.5
20260502041008 56 250 0.0 0.0 0.00 0.00 0.00 84 1016.5
20260502040505 56 250 0.0 0.0 0.00 0.00 0.00 83 1016.5
20260502040007 56 250 0.0 0.0 0.00 0.00 0.00 82 1016.5
20260502035506 57 250 0.0 0.0 0.00 0.00 0.00 82 1016.5
20260502035006 57 250 0.0 0.0 0.00 0.00 0.00 81 1016.3
20260502034505 57 250 0.0 0.0 0.00 0.00 0.00 80 1016.3
20260502034005 58 250 0.0 0.0 0.00 0.00 0.00 80 1016.2
20260502033504 58 250 0.0 1.0 0.00 0.00 0.00 79 1016.2
20260502033007 58 250 0.0 1.0 0.00 0.00 0.00 78 1016.2
20260502032505 59 250 0.0 0.0 0.00 0.00 0.00 77 1016.0
20260502032004 59 250 0.0 0.0 0.00 0.00 0.00 77 1016.0
20260502031506 59 250 0.0 1.0 0.00 0.00 0.00 76 1015.9
20260502031006 60 250 0.0 1.0 0.00 0.00 0.00 76 1015.7
20260502030505 60 250 0.0 1.0 0.00 0.00 0.00 76 1015.7
20260502030007 60 127 0.0 0.0 0.00 0.00 0.00 75 1015.6
20260502025505 61 127 0.0 0.0 0.00 0.00 0.00 74 1015.6
20260502024504 62 127 0.0 0.0 0.00 0.00 0.00 72 1015.6
20260502024005 62 127 0.0 1.0 0.00 0.00 0.00 71 1015.4
20260502023504 62 127 0.0 1.0 0.00 0.00 0.00 70 1015.5
20260502023007 63 122 0.0 0.0 0.00 0.00 0.00 69 1015.4
20260502022005 64 122 0.0 0.0 0.00 0.00 0.00 67 1015.4
20260502021505 64 122 0.0 0.0 0.00 0.00 0.00 66 1015.4
20260502021008 64 122 0.0 0.0 0.00 0.00 0.00 66 1015.4
20260502015505 65 122 0.0 1.0 0.00 0.00 0.00 64 1015.5
20260502015006 65 123 0.0 1.0 0.00 0.00 0.00 63 1015.6
20260502014505 65 123 0.0 0.0 0.00 0.00 0.00 62 1015.6
20260502014005 66 123 0.0 1.0 0.00 0.00 0.00 61 1015.7
20260502013007 66 117 0.0 3.0 0.00 0.00 0.00 60 1015.8
20260502011007 67 118 0.0 1.0 0.00 0.00 0.00 59 1015.9
20260502010505 67 264 0.0 2.0 0.00 0.00 0.00 58 1015.8
20260502010007 67 264 0.0 2.0 0.00 0.00 0.00 57 1015.9
20260502005505 67 75 1.0 2.0 0.00 0.00 0.00 56 1015.9
20260502004005 68 129 1.0 4.0 0.00 0.00 0.00 58 1015.9
20260502003505 68 131 1.0 5.0 0.00 0.00 0.00 58 1015.8
20260502003005 68 113 1.0 5.0 0.00 0.00 0.00 58 1015.8
20260502002505 69 135 1.0 5.0 0.00 0.00 0.00 57 1015.8
20260502002006 69 134 1.0 7.0 0.00 0.00 0.00 57 1015.8
20260502001505 69 98 1.0 7.0 0.00 0.00 0.00 57 1015.8
20260502001004 71 226 1.0 2.0 0.00 0.00 0.00 55 1015.8
20260502000505 71 162 0.0 3.0 0.00 0.00 0.00 53 1015.9
20260502000008 71 143 1.0 6.0 0.00 0.00 0.00 49 1015.9
20260501235501 71 245 1.0 6.0 0.00 0.00 0.00 51 1015.9
20260501235006 71 138 1.0 4.0 0.00 0.00 0.00 49 1015.9
20260501234501 71 68 1.0 4.0 0.00 0.00 0.00 49 1015.9
20260501233503 71 84 1.0 6.0 0.00 0.00 0.00 50 1016.0
20260501233005 71 107 2.0 6.0 0.00 0.00 0.00 47 1016.0
20260501232505 71 290 2.0 6.0 0.00 0.00 0.00 51 1016.1
20260501232005 71 245 2.0 8.0 0.00 0.00 0.00 52 1016.0
20260501231506 71 213 2.0 8.0 0.00 0.00 0.00 50 1016.1
20260501231005 72 143 1.0 5.0 0.00 0.00 0.00 44 1016.1
20260501230505 73 210 1.0 3.0 0.00 0.00 0.00 40 1016.1
20260501230005 73 202 1.0 3.0 0.00 0.00 0.00 39 1016.3
20260501225506 73 146 1.0 4.0 0.00 0.00 0.00 37 1016.3
20260501225006 74 138 1.0 4.0 0.00 0.00 0.00 38 1016.3
20260501224506 74 255 1.0 4.0 0.00 0.00 0.00 39 1016.3
20260501223009 74 215 1.0 5.0 0.00 0.00 0.00 40 1016.8
20260501222504 75 141 1.0 6.0 0.00 0.00 0.00 40 1016.9
20260501222005 74 77 1.0 6.0 0.00 0.00 0.00 40 1017.0
20260501221505 75 117 1.0 6.0 0.00 0.00 0.00 40 1017.0
20260501221004 74 240 2.0 5.0 0.00 0.00 0.00 41 1017.0
20260501220505 74 140 2.0 7.0 0.00 0.00 0.00 40 1017.0
20260501220007 74 272 2.0 7.0 0.00 0.00 0.00 39 1017.0
20260501215506 75 101 1.0 5.0 0.00 0.00 0.00 38 1017.0
20260501214506 74 323 2.0 7.0 0.00 0.00 0.00 40 1017.1
20260501213004 75 132 2.0 5.0 0.00 0.00 0.00 42 1017.2
20260501212506 74 234 2.0 6.0 0.00 0.00 0.00 43 1017.1
20260501212006 74 143 2.0 7.0 0.00 0.00 0.00 43 1017.1
20260501211505 75 103 1.0 7.0 0.00 0.00 0.00 42 1017.1
20260501211005 75 304 2.0 4.0 0.00 0.00 0.00 44 1017.0
20260501210504 75 63 2.0 6.0 0.00 0.00 0.00 42 1017.1
20260501210010 75 236 2.0 6.0 0.00 0.00 0.00 41 1017.0
20260501205006 74 274 2.0 4.0 0.00 0.00 0.00 42 1017.0
20260501204505 75 141 2.0 4.0 0.00 0.00 0.00 37 1017.1
20260501204004 74 101 2.0 4.0 0.00 0.00 0.00 39 1017.1
20260501203504 74 247 2.0 6.0 0.00 0.00 0.00 41 1017.1
20260501201505 74 117 2.0 7.0 0.00 0.00 0.00 37 1017.1
20260501201004 75 255 2.0 6.0 0.00 0.00 0.00 37 1017.1
20260501200505 75 84 1.0 7.0 0.00 0.00 0.00 36 1017.1
20260501200008 75 313 2.0 7.0 0.00 0.00 0.00 35 1017.3
20260501195506 74 131 3.0 8.0 0.00 0.00 0.00 35 1017.3
20260501194505 74 217 2.0 6.0 0.00 0.00 0.00 36 1017.2
20260501193008 75 46 1.0 5.0 0.00 0.00 0.00 37 1017.2
20260501192507 74 130 2.0 5.0 0.00 0.00 0.00 36 1017.2
20260501192007 74 261 2.0 7.0 0.00 0.00 0.00 33 1017.2
20260501191006 74 143 2.0 5.0 0.00 0.00 0.00 34 1017.3
20260501190507 74 285 2.0 4.0 0.00 0.00 0.00 34 1017.3
20260501190008 73 110 2.0 6.0 0.00 0.00 0.00 34 1017.4
20260501185505 74 118 2.0 6.0 0.00 0.00 0.00 34 1017.4
20260501185007 74 66 2.0 5.0 0.00 0.00 0.00 33 1017.6
20260501184506 74 134 2.0 4.0 0.00 0.00 0.00 34 1017.6
20260501184007 72 244 2.0 5.0 0.00 0.00 0.00 36 1017.7
20260501183505 72 142 2.0 5.0 0.00 0.00 0.00 34 1017.6
20260501183005 73 143 2.0 5.0 0.00 0.00 0.00 34 1017.6
20260501182506 72 185 2.0 6.0 0.00 0.00 0.00 32 1017.6
20260501182007 72 185 2.0 6.0 0.00 0.00 0.00 31 1017.6
20260501181005 72 265 1.0 4.0 0.00 0.00 0.00 28 1017.6
20260501180506 72 235 1.0 4.0 0.00 0.00 0.00 29 1017.6
20260501175505 72 288 2.0 5.0 0.00 0.00 0.00 27 1017.5
20260501174508 72 106 1.0 5.0 0.00 0.00 0.00 27 1017.4
20260501174006 72 107 2.0 5.0 0.00 0.00 0.00 29 1017.4
20260501173506 72 252 1.0 4.0 0.00 0.00 0.00 31 1017.4
20260501173006 72 237 1.0 7.0 0.00 0.00 0.00 32 1017.3
20260501172505 72 289 2.0 7.0 0.00 0.00 0.00 31 1017.4
20260501172005 71 192 2.0 5.0 0.00 0.00 0.00 28 1017.3